Regional Weather Roundup
Issued by NWS Goodland, KS

Home | Current Version | Previous Version | Text Only | Print | Product List | Glossary On
Versions: 1 2 3 4 5 6 7 8 9 10 11 12 13 14 15 16 17 18 19 20 21 22 23 24 25 26 27 28 29 30 31 32 33 34 35 36 37 38 39 40 41 42 43 44 45 46 47 48 49 50
000
ASUS43 KGLD 230308
RWRGLD

GOODLAND FORECAST AREA HOURLY WEATHER ROUNDUP
NATIONAL WEATHER SERVICE GOODLAND KS
900 PM MDT MON SEP 22 2014

...OFFICIAL OBSERVATIONS...

CITY           SKY/WX    TMP DP  RH WIND       PRES   REMARKS
GOODLAND KS    CLOUDY    67  50  54 S18       30.10R
HILL CITY KS   CLOUDY    66  50  56 SE10      30.12S
IMPERIAL NEB   CLOUDY    64  53  67 SE21G30   30.05F
MCCOOK NEB     TSTM      61  53  75 NW14G30   30.16R
AKRON CO       MOCLDY    61  58  90 SE13      30.07S
BURLINGTON CO  CLOUDY    70  56  61 S20G25    30.09S
LIMON CO       CLOUDY    57  53  86 NW10      30.13S
$$

...UNOFFICIAL OBSERVATIONS...

CITY           SKY/WX    TMP DP  RH WIND       PRES   REMARKS
COLBY KS       CLOUDY    68  54  60 SE17G23   30.11R
GOVE KS          N/A     69  32  25 MISG        N/A
NORTON KS      PTCLDY    64  45  48 SE12      30.11
SHARON SPRINGS   N/A     68  53  59 S12G20      N/A
WAKEENEY KS      N/A     67  41  38 MISG        N/A
KIT CARSON CO    N/A     69  58  68 N13G21      N/A
YUMA CO          N/A     61  59  92 CALM        N/A
$$


USA.gov is the U.S. government's official web portal to all federal, state and local government web resources and services.